ESNQ

Kiruna

Airport
ICAO code
ESNQ
Summary
ICAO Region
EUR
ICAO Territory
Location

Kiruna,

Elevation
1508 ft
Coordinates
67° 49' 19" N , 20° 20' 12" E
KCC
Metar
ESNQ 191850Z AUTO 33011KT 310V010 9999 -RA OVC031/// 11/09 Q0998

Description

Kiruna Airport is the northernmost airport in Sweden. The airport lies around 10 km from the town centre of Kiruna.

Climatology

Subarctic climate (Köppen climate classification Dfc) - long, usually very cold winters, and short, cool to mild summers.

Runways

Designator Length Width Surface Rops
3/21 2502 45 ASP Yes/Yes

Airport map

Aerial View

Airport accidents

SKYbrary Partners:

Safety knowledge contributed by: